480  
ASPQ40 PGUM 201610  
RWRPQ  
WEATHER ROUNDUP FOR THE MARIANAS AND MICRONESIA  
NATIONAL WEATHER SERVICE TIYAN GU  
200 AM CHST THU JUN 21 2018  
 
GUZ001>004-201700-  
MARIANA ISLANDS-  
 
CITY SKY/WX TMP DP RH WIND PRES REMARKS
 
GUAM AIRPORT MOCLDY 81 79 94 E10 29.93F  
ANDERSEN AFB NOT AVBL  
ROTA AIRPORT NOT AVBL  
TINIAN AP NOT AVBL  
SAIPAN AP PTCLDY 79 79 100 NE7 29.93F  
 

 
 
PMZ161-201700-  
REPUBLIC OF PALAU-  
 
CITY SKY/WX TMP DP RH WIND PRES REMARKS
 
KOROR AP MOCLDY 77 75 94 NW6 29.88S  
KOROR WSO MOCLDY 79 77 94 NW5 29.89F  
 

 
 
PMZ171>174-201700-  
FEDERATED STATES OF MICRONESIA-  
 
CITY SKY/WX TMP DP RH WIND PRES REMARKS
 
YAP AIRPORT NOT AVBL  
CHUUK AP CLOUDY 81 77 89 SE7 29.86F  
POHNPEI AP NOT AVBL  
POHNPEI WSO MOCLDY 77 75 94 CALM 29.84F  
KOSRAE AP NOT AVBL  
 

 
 
PMZ181-201700-  
REPUBLIC OF THE MARSHALL ISLANDS-  
 
CITY SKY/WX TMP DP RH WIND PRES REMARKS
 
KWAJALEIN AP CLEAR 79 79 100 E8 29.79F  
MAJURO AP NOT AVBL  
MAJURO WSO NOT AVBL  
 

 
 
 
 
CLICK HERE TO GO TO PREVIOUS BULLETINS.

The Nexlab GU Page Main Text Page